x

Ilm2 - 5 Miles Se Of Wrightsville Beach, Nc (41038) Weather Station

10:08 - Thu 23rd Feb 2017 All times are EST. -5 hours from GMT.

  • Wind
    11mph, 16mph gusts
  • Sea Temp 58°f
  • Aire Temp 59°f
  • Sea Pressure 1014.1mb
  • Ilm2 - 5 Miles Se Of Wrightsville Beach, Nc
  • Ilm2 - 5 Miles Se Of Wrightsville Beach, Nc

More Historic Weather Station data

Upgrade to MSW Pro to gain access to the past 30 days of data for over 8000 Wavebouys and Weather Stations around the globe.

Join Pro

Comparision Forecast

View Surf forecast
   
jue 02/23 10:08 11 16 mph 1014.1mb 58f 59f
9:08 7 9 mph 1013.6mb 58f 61f
8:08 11 16 mph 1013.1mb 58f 61f
7:08 9 16 mph 1012.5mb 58f 61f
6:08 9 16 mph 1012.1mb 58f 61f
5:08 9 11 mph 1012mb 58f 60f
mié 02/22 5:08 7 11 mph 1016.4mb 56f 58f
4:08 7 11 mph 1016.5mb 56f 58f
3:08 7 9 mph 1016.7mb 56f 58f
1:08 4 9 mph 1017.8mb 56f 58f
12:08 4 9 mph 1018.5mb 56f 59f
mar 02/21 11:08 4 11 mph 1019.1mb 56f 58f
10:08 9 11 mph 1019.7mb 56f 57f
9:08 11 16 mph 1020mb 56f 58f
8:08 9 16 mph 1020mb 56f 58f
7:08 9 16 mph 1020.2mb 56f 58f
6:08 11 18 mph 1020.2mb 56f 58f
5:08 11 18 mph 1020.2mb 56f 58f
4:08 9 13 mph 1020.3mb 56f 58f
3:08 11 18 mph 1020.7mb 56f 58f
2:08 11 18 mph 1021.3mb 56f 57f
1:08 11 18 mph 1022.1mb 56f 56f
12:08 11 20 mph 1023.1mb 56f 55f
11:08 13 20 mph 1024mb 56f 55f
10:08 13 20 mph 1024.1mb 56f 55f
9:08 11 20 mph 1024.1mb 56f 54f
8:08 11 20 mph 1024.1mb 56f 54f
7:08 11 20 mph 1023.9mb 56f 55f
6:08 11 20 mph 1023.5mb 56f 55f
5:08 13 22 mph 1023.1mb 56f 55f
4:08 13 25 mph 1023mb 56f 55f
3:08 13 22 mph 1023mb 56f 56f
2:08 11 20 mph 1023.1mb 56f 56f
1:08 11 20 mph 1023.3mb 56f 57f
12:08 9 16 mph 1023mb 56f 57f
lun 02/20 11:08 9 16 mph 1022.8mb 56f 57f
10:08 9 13 mph 1022.7mb 56f 58f
9:08 9 13 mph 1022.7mb 56f 58f
8:08 9 13 mph 1022.3mb 56f 58f
7:08 7 11 mph 1022.1mb 56f 58f
6:08 7 9 mph 1022mb 56f 58f
5:08 9 13 mph 1021.7mb 56f 58f
4:08 11 13 mph 1021.2mb 56f 59f
3:08 7 11 mph 1021.2mb 57f 59f
2:08 9 11 mph 1021.3mb 57f 59f
1:08 7 11 mph 1021.3mb 57f 58f
11:08 4 9 mph 1022.4mb 56f 58f
10:08 7 11 mph 1022.2mb 56f 57f
9:08 9 20 mph 1022.3mb 56f 57f
8:08 9 18 mph 1021mb 56f 55f
7:08 11 18 mph 1020.8mb 56f 55f
6:08 11 16 mph 1020mb 56f 56f
5:08 9 18 mph 1019.7mb 56f 56f
4:08 11 16 mph 1018.9mb 56f 57f
3:08 11 16 mph 1018.3mb 56f 57f
2:08 9 11 mph 1017.7mb 56f 57f
1:08 9 11 mph 1017.8mb 56f 57f
12:08 7 9 mph 1017.5mb 56f 57f
dom 02/19 11:08 7 9 mph 1017.6mb 56f 58f
10:08 7 9 mph 1017.5mb 56f 58f
9:08 4 7 mph 1016.9mb 56f 59f
8:08 4 7 mph 1016.2mb 56f 61f
7:08 2 4 mph 1015.6mb 56f 62f
6:08 4 9 mph 1014.7mb 56f 62f
5:08 7 11 mph 1013.9mb 57f 64f